Time,TemperatureF,DewpointF,PressureIn,WindDirection,WindDirectionDegrees,WindSpeedMPH,WindSpeedGustMPH,Humidity,HourlyPrecipIn,Conditions,Clouds,dailyrainin,SoftwareType,DateUTC
2015-01-26 00:02:00,55.1,46.6,30.02,SSW,194,15.0,15.0,73,0.00,CLR,,0.00,WeatherDisplay:10.37,2015-01-26 08:02:00,
2015-01-26 00:07:00,55.0,46.5,30.02,SSE,163,17.0,17.0,73,0.00,CLR,,0.00,WeatherDisplay:10.37,2015-01-26 08:07:00,
2015-01-26 00:12:00,55.1,46.6,30.01,South,177,16.0,16.0,73,0.00,CLR,,0.00,WeatherDisplay:10.37,2015-01-26 08:12:00,
2015-01-26 00:17:00,55.0,46.5,30.01,SSW,195,17.0,17.0,73,0.00,CLR,,0.00,WeatherDisplay:10.37,2015-01-26 08:17:00,
2015-01-26 00:22:00,54.9,46.4,30.01,SSW,198,19.6,19.6,73,0.00,CLR,,0.00,WeatherDisplay:10.37,2015-01-26 08:22:00,
2015-01-26 00:27:00,54.8,46.3,30.01,SSW,193,13.8,13.8,73,0.00,CLR,,0.00,WeatherDisplay:10.37,2015-01-26 08:27:00,
2015-01-26 00:32:00,54.6,46.5,30.01,SSW,193,17.3,17.3,74,0.00,CLR,,0.00,WeatherDisplay:10.37,2015-01-26 08:32:00,
2015-01-26 00:37:00,54.6,46.5,30.01,South,190,16.1,16.1,74,0.00,CLR,,0.00,WeatherDisplay:10.37,2015-01-26 08:37:00,
2015-01-26 00:42:00,54.6,46.5,30.01,South,176,18.4,18.4,74,0.00,CLR,,0.00,WeatherDisplay:10.37,2015-01-26 08:42:00,
2015-01-26 00:47:00,54.8,46.3,30.01,South,169,18.4,18.4,73,0.00,CLR,,0.00,WeatherDisplay:10.37,2015-01-26 08:47:00,
2015-01-26 00:52:00,55.0,46.1,30.01,South,186,18.0,18.0,72,0.00,CLR,,0.00,WeatherDisplay:10.37,2015-01-26 08:52:00,
2015-01-26 00:57:00,55.2,46.3,30.01,SSE,151,21.9,21.9,72,0.00,CLR,,0.00,WeatherDisplay:10.37,2015-01-26 08:57:00,
2015-01-26 01:02:00,55.3,46.1,30.01,South,191,19.0,19.0,71,0.00,CLR,,0.00,WeatherDisplay:10.37,2015-01-26 09:02:00,
2015-01-26 01:07:00,55.3,46.1,30.01,SSW,193,18.0,18.0,71,0.00,CLR,,0.00,WeatherDisplay:10.37,2015-01-26 09:07:00,
2015-01-26 01:12:00,55.2,46.3,30.02,SSW,197,19.6,19.6,72,0.00,CLR,,0.00,WeatherDisplay:10.37,2015-01-26 09:12:00,
2015-01-26 01:17:00,55.0,46.1,30.01,South,186,19.6,19.6,72,0.00,CLR,,0.00,WeatherDisplay:10.37,2015-01-26 09:17:00,
2015-01-26 01:22:00,54.8,46.3,30.01,SSW,194,17.3,17.3,73,0.00,CLR,,0.00,WeatherDisplay:10.37,2015-01-26 09:22:00,
2015-01-26 01:27:00,54.6,46.1,30.02,SSW,211,19.0,19.0,73,0.00,CLR,,0.00,WeatherDisplay:10.37,2015-01-26 09:27:00,
2015-01-26 01:32:00,54.5,46.0,30.02,South,182,15.0,15.0,73,0.00,CLR,,0.00,WeatherDisplay:10.37,2015-01-26 09:32:00,
2015-01-26 01:37:00,54.4,45.9,30.02,SSW,198,19.6,19.6,73,0.00,CLR,,0.00,WeatherDisplay:10.37,2015-01-26 09:37:00,
2015-01-26 01:42:00,54.3,46.2,30.02,SSE,160,17.3,17.3,74,0.00,CLR,,0.00,WeatherDisplay:10.37,2015-01-26 09:42:00,
2015-01-26 01:47:00,54.3,46.2,30.02,SSW,205,19.6,19.6,74,0.00,CLR,,0.00,WeatherDisplay:10.37,2015-01-26 09:47:00,
2015-01-26 01:52:00,54.4,45.9,30.01,South,175,20.7,20.7,73,0.00,CLR,,0.00,WeatherDisplay:10.37,2015-01-26 09:52:00,
2015-01-26 01:57:00,54.6,46.1,30.01,SSW,194,17.3,17.3,73,0.00,CLR,,0.00,WeatherDisplay:10.37,2015-01-26 09:57:00,
2015-01-26 02:02:00,54.7,46.2,30.01,South,180,16.1,16.1,73,0.00,CLR,,0.00,WeatherDisplay:10.37,2015-01-26 10:02:00,
2015-01-26 02:07:00,54.6,46.1,30.01,SSW,202,15.0,15.0,73,0.00,CLR,,0.00,WeatherDisplay:10.37,2015-01-26 10:07:00,
2015-01-26 02:12:00,54.4,46.3,30.01,SSW,207,16.1,16.1,74,0.00,CLR,,0.00,WeatherDisplay:10.37,2015-01-26 10:12:00,
2015-01-26 02:17:00,54.1,46.3,30.01,SSW,201,15.0,15.0,75,0.00,CLR,,0.00,WeatherDisplay:10.37,2015-01-26 10:17:00,
2015-01-26 02:22:00,53.8,46.4,30.01,South,184,16.1,16.1,76,0.00,CLR,,0.00,WeatherDisplay:10.37,2015-01-26 10:22:00,
2015-01-26 02:27:00,53.6,46.6,30.01,SSW,212,18.0,18.0,77,0.00,CLR,,0.00,WeatherDisplay:10.37,2015-01-26 10:27:00,
2015-01-26 02:32:00,53.4,46.7,30.01,SSW,198,16.1,16.1,78,0.00,CLR,,0.00,WeatherDisplay:10.37,2015-01-26 10:32:00,
2015-01-26 02:37:00,53.2,46.5,30.01,South,182,21.9,21.9,78,0.00,CLR,,0.00,WeatherDisplay:10.37,2015-01-26 10:37:00,
2015-01-26 02:42:00,53.2,46.5,30.00,SSE,161,19.6,19.6,78,0.00,CLR,,0.00,WeatherDisplay:10.37,2015-01-26 10:42:00,
2015-01-26 02:47:00,53.2,46.5,30.00,SSE,166,15.0,15.0,78,0.00,CLR,,0.00,WeatherDisplay:10.37,2015-01-26 10:47:00,
2015-01-26 02:52:00,53.3,46.3,30.01,South,182,16.1,16.1,77,0.00,CLR,,0.00,WeatherDisplay:10.37,2015-01-26 10:52:00,
2015-01-26 02:57:00,53.3,46.3,30.00,SSE,161,17.3,17.3,77,0.00,CLR,,0.00,WeatherDisplay:10.37,2015-01-26 10:57:00,
2015-01-26 03:02:00,53.4,46.4,30.00,SSW,212,15.0,15.0,77,0.00,CLR,,0.00,WeatherDisplay:10.37,2015-01-26 11:02:00,
2015-01-26 03:07:00,53.4,46.4,30.00,South,180,16.1,16.1,77,0.00,CLR,,0.00,WeatherDisplay:10.37,2015-01-26 11:07:00,
2015-01-26 03:12:00,53.4,46.4,30.00,South,190,11.5,11.5,77,0.00,CLR,,0.00,WeatherDisplay:10.37,2015-01-26 11:12:00,
2015-01-26 03:17:00,53.3,46.3,30.00,South,189,16.1,16.1,77,0.00,CLR,,0.00,WeatherDisplay:10.37,2015-01-26 11:17:00,
2015-01-26 03:22:00,53.2,46.2,30.00,SW,221,15.0,15.0,77,0.00,CLR,,0.00,WeatherDisplay:10.37,2015-01-26 11:22:00,
2015-01-26 03:27:00,53.1,46.1,30.00,SW,220,11.5,11.5,77,0.00,CLR,,0.00,WeatherDisplay:10.37,2015-01-26 11:27:00,
2015-01-26 03:32:00,53.0,46.0,30.00,SSW,194,13.0,13.0,77,0.00,CLR,,0.00,WeatherDisplay:10.37,2015-01-26 11:32:00,
2015-01-26 03:37:00,52.9,45.9,29.99,WSW,241,10.4,10.4,77,0.00,CLR,,0.00,WeatherDisplay:10.37,2015-01-26 11:37:00,
2015-01-26 03:42:00,52.9,45.5,29.99,SSW,206,11.5,11.5,76,0.00,CLR,,0.00,WeatherDisplay:10.37,2015-01-26 11:42:00,
2015-01-26 03:47:00,53.0,45.6,29.99,South,185,10.4,10.4,76,0.00,CLR,,0.00,WeatherDisplay:10.37,2015-01-26 11:47:00,
2015-01-26 03:52:00,53.2,45.1,29.99,SSW,194,11.5,11.5,74,0.00,CLR,,0.00,WeatherDisplay:10.37,2015-01-26 11:52:00,
2015-01-26 03:57:00,53.5,45.1,29.99,SSW,194,13.8,13.8,73,0.00,CLR,,0.00,WeatherDisplay:10.37,2015-01-26 11:57:00,
2015-01-26 04:02:00,53.9,44.7,29.98,ESE,105,5.0,5.0,71,0.00,CLR,,0.00,WeatherDisplay:10.37,2015-01-26 12:02:00,
2015-01-26 04:07:00,54.2,44.2,29.99,SSW,202,13.8,13.8,69,0.00,CLR,,0.00,WeatherDisplay:10.37,2015-01-26 12:07:00,
2015-01-26 04:12:00,54.6,44.6,29.99,SSW,203,12.0,12.0,69,0.00,CLR,,0.00,WeatherDisplay:10.37,2015-01-26 12:12:00,
2015-01-26 04:17:00,54.6,44.6,29.99,SSE,155,11.5,11.5,69,0.00,CLR,,0.00,WeatherDisplay:10.37,2015-01-26 12:17:00,
2015-01-26 04:22:00,54.5,44.2,29.98,SE,130,4.0,4.0,68,0.00,CLR,,0.00,WeatherDisplay:10.37,2015-01-26 12:22:00,
2015-01-26 04:27:00,54.4,44.4,29.98,South,186,16.0,16.0,69,0.00,CLR,,0.00,WeatherDisplay:10.37,2015-01-26 12:27:00,
2015-01-26 04:32:00,54.3,44.3,29.98,SSE,154,12.7,12.7,69,0.00,CLR,,0.00,WeatherDisplay:10.37,2015-01-26 12:32:00,
2015-01-26 04:37:00,54.3,44.3,29.99,SE,132,11.5,11.5,69,0.00,CLR,,0.00,WeatherDisplay:10.37,2015-01-26 12:37:00,
2015-01-26 04:42:00,54.2,43.9,29.99,SSE,161,5.8,5.8,68,0.00,CLR,,0.00,WeatherDisplay:10.37,2015-01-26 12:42:00,
2015-01-26 04:47:00,54.1,43.8,29.99,SW,217,8.0,8.0,68,0.00,CLR,,0.00,WeatherDisplay:10.37,2015-01-26 12:47:00,
2015-01-26 04:52:00,54.1,43.8,29.99,SW,219,11.0,11.0,68,0.00,CLR,,0.00,WeatherDisplay:10.37,2015-01-26 12:52:00,
2015-01-26 04:57:00,54.1,43.8,29.99,SSW,200,8.1,8.1,68,0.00,CLR,,0.00,WeatherDisplay:10.37,2015-01-26 12:57:00,
2015-01-26 05:02:00,54.0,43.3,29.99,SSE,165,12.7,12.7,67,0.00,CLR,,0.00,WeatherDisplay:10.37,2015-01-26 13:02:00,
2015-01-26 05:07:00,53.9,43.2,29.99,South,169,9.0,9.0,67,0.00,CLR,,0.00,WeatherDisplay:10.37,2015-01-26 13:07:00,
2015-01-26 05:12:00,53.7,43.0,29.99,SW,227,8.1,8.1,67,0.00,CLR,,0.00,WeatherDisplay:10.37,2015-01-26 13:12:00,
2015-01-26 05:17:00,53.6,42.9,29.99,SW,227,11.5,11.5,67,0.00,CLR,,0.00,WeatherDisplay:10.37,2015-01-26 13:17:00,
2015-01-26 05:22:00,53.5,42.8,29.98,SW,219,9.2,9.2,67,0.00,CLR,,0.00,WeatherDisplay:10.37,2015-01-26 13:22:00,
2015-01-26 05:27:00,53.6,42.9,29.98,SSW,194,15.0,15.0,67,0.00,CLR,,0.00,WeatherDisplay:10.37,2015-01-26 13:27:00,
2015-01-26 05:32:00,53.7,42.6,29.98,South,184,19.6,19.6,66,0.00,CLR,,0.00,WeatherDisplay:10.37,2015-01-26 13:32:00,
2015-01-26 05:37:00,53.9,42.8,29.98,South,180,19.6,19.6,66,0.00,CLR,,0.00,WeatherDisplay:10.37,2015-01-26 13:37:00,
2015-01-26 05:42:00,53.9,42.4,29.98,South,185,17.3,17.3,65,0.00,CLR,,0.00,WeatherDisplay:10.37,2015-01-26 13:42:00,
2015-01-26 05:47:00,53.9,42.0,29.98,South,190,21.9,21.9,64,0.00,CLR,,0.00,WeatherDisplay:10.37,2015-01-26 13:47:00,
2015-01-26 05:52:00,53.9,42.0,29.98,SSE,167,13.0,13.0,64,0.00,CLR,,0.00,WeatherDisplay:10.37,2015-01-26 13:52:00,
2015-01-26 05:57:00,53.8,41.9,29.99,SW,232,13.0,13.0,64,0.00,CLR,,0.00,WeatherDisplay:10.37,2015-01-26 13:57:00,
2015-01-26 06:02:00,53.6,42.1,29.99,ESE,117,11.5,11.5,65,0.00,CLR,,0.00,WeatherDisplay:10.37,2015-01-26 14:02:00,
2015-01-26 06:07:00,53.4,42.3,29.98,SSE,166,9.0,9.0,66,0.00,CLR,,0.00,WeatherDisplay:10.37,2015-01-26 14:07:00,
2015-01-26 06:12:00,53.1,42.0,29.98,South,186,9.2,9.2,66,0.00,CLR,,0.00,WeatherDisplay:10.37,2015-01-26 14:12:00,
2015-01-26 06:17:00,52.9,41.4,29.98,South,186,11.5,11.5,65,0.00,CLR,,0.00,WeatherDisplay:10.37,2015-01-26 14:17:00,
2015-01-26 06:22:00,52.7,41.3,29.99,SSW,200,10.0,10.0,65,0.00,CLR,,0.00,WeatherDisplay:10.37,2015-01-26 14:22:00,
2015-01-26 06:27:00,52.7,41.3,29.99,SSE,165,10.4,10.4,65,0.00,CLR,,0.00,WeatherDisplay:10.37,2015-01-26 14:27:00,
2015-01-26 06:32:00,52.7,40.9,29.99,SW,219,5.8,5.8,64,0.00,CLR,,0.00,WeatherDisplay:10.37,2015-01-26 14:32:00,
2015-01-26 06:37:00,52.7,41.3,29.99,South,176,6.9,6.9,65,0.00,CLR,,0.00,WeatherDisplay:10.37,2015-01-26 14:37:00,
2015-01-26 06:42:00,52.7,41.3,29.99,SSW,211,8.1,8.1,65,0.00,CLR,,0.00,WeatherDisplay:10.37,2015-01-26 14:42:00,
2015-01-26 06:47:00,52.7,41.3,30.00,South,191,8.0,8.0,65,0.00,CLR,,0.00,WeatherDisplay:10.37,2015-01-26 14:47:00,
2015-01-26 06:52:00,52.6,41.2,29.99,WSW,244,6.9,6.9,65,0.00,CLR,,0.00,WeatherDisplay:10.37,2015-01-26 14:52:00,
2015-01-26 06:57:00,52.4,41.0,30.00,SSW,198,10.0,10.0,65,0.00,CLR,,0.00,WeatherDisplay:10.37,2015-01-26 14:57:00,
2015-01-26 07:02:00,52.3,41.3,30.00,WSW,249,5.8,5.8,66,0.00,CLR,,0.00,WeatherDisplay:10.37,2015-01-26 15:02:00,
2015-01-26 07:07:00,52.0,41.0,30.00,SW,229,6.0,6.0,66,0.00,CLR,,0.00,WeatherDisplay:10.37,2015-01-26 15:07:00,
2015-01-26 07:12:00,51.8,40.8,29.99,South,179,6.0,6.0,66,0.00,CLR,,0.00,WeatherDisplay:10.37,2015-01-26 15:12:00,
2015-01-26 07:17:00,51.6,40.6,30.00,South,191,9.2,9.2,66,0.00,CLR,,0.00,WeatherDisplay:10.37,2015-01-26 15:17:00,
2015-01-26 07:22:00,51.5,40.9,30.00,SW,216,8.1,8.1,67,0.00,CLR,,0.00,WeatherDisplay:10.37,2015-01-26 15:22:00,
2015-01-26 07:27:00,51.4,41.2,30.00,SSE,161,6.0,6.0,68,0.00,CLR,,0.00,WeatherDisplay:10.37,2015-01-26 15:27:00,
2015-01-26 07:32:00,51.3,41.1,30.00,SSE,166,7.0,7.0,68,0.00,CLR,,0.00,WeatherDisplay:10.37,2015-01-26 15:32:00,
2015-01-26 07:37:00,51.1,41.3,30.00,SW,229,6.0,6.0,69,0.00,CLR,,0.00,WeatherDisplay:10.37,2015-01-26 15:37:00,
2015-01-26 07:42:00,51.1,41.3,30.00,WSW,237,10.4,10.4,69,0.00,CLR,,0.00,WeatherDisplay:10.37,2015-01-26 15:42:00,
2015-01-26 07:47:00,51.1,41.3,30.00,SW,233,9.2,9.2,69,0.00,CLR,,0.00,WeatherDisplay:10.37,2015-01-26 15:47:00,
2015-01-26 07:52:00,51.0,41.2,30.00,SSW,196,9.2,9.2,69,0.00,CLR,,0.00,WeatherDisplay:10.37,2015-01-26 15:52:00,
2015-01-26 07:57:00,51.1,41.3,30.00,South,180,16.0,16.0,69,0.00,CLR,,0.00,WeatherDisplay:10.37,2015-01-26 15:57:00,
2015-01-26 08:02:00,51.2,41.4,30.00,South,182,17.3,17.3,69,0.00,CLR,,0.00,WeatherDisplay:10.37,2015-01-26 16:02:00,
2015-01-26 08:07:00,51.2,41.7,30.00,SSE,160,16.1,16.1,70,0.00,CLR,,0.00,WeatherDisplay:10.37,2015-01-26 16:07:00,
2015-01-26 08:12:00,51.2,41.7,30.00,South,171,20.7,20.7,70,0.00,CLR,,0.00,WeatherDisplay:10.37,2015-01-26 16:12:00,
2015-01-26 08:17:00,51.2,41.7,30.00,South,180,19.6,19.6,70,0.00,CLR,,0.00,WeatherDisplay:10.37,2015-01-26 16:17:00,
2015-01-26 08:22:00,51.4,41.9,30.00,SE,141,21.0,21.0,70,0.00,CLR,,0.00,WeatherDisplay:10.37,2015-01-26 16:22:00,
2015-01-26 08:27:00,51.8,42.3,30.01,South,184,20.0,20.0,70,0.00,CLR,,0.00,WeatherDisplay:10.37,2015-01-26 16:27:00,
2015-01-26 08:32:00,52.3,42.8,30.01,SSW,192,20.7,20.7,70,0.00,CLR,,0.00,WeatherDisplay:10.37,2015-01-26 16:32:00,
2015-01-26 08:37:00,52.6,42.7,30.01,South,188,20.0,20.0,69,0.00,CLR,,0.00,WeatherDisplay:10.37,2015-01-26 16:37:00,
2015-01-26 08:42:00,52.8,43.3,30.01,SSW,192,23.0,23.0,70,0.00,CLR,,0.00,WeatherDisplay:10.37,2015-01-26 16:42:00,
2015-01-26 08:47:00,52.9,43.4,30.01,SW,221,19.6,19.6,70,0.00,CLR,,0.00,WeatherDisplay:10.37,2015-01-26 16:47:00,
2015-01-26 08:52:00,53.0,43.1,30.01,SSW,201,24.2,24.2,69,0.00,CLR,,0.00,WeatherDisplay:10.37,2015-01-26 16:52:00,
2015-01-26 08:57:00,53.3,43.4,30.01,SSE,153,15.0,15.0,69,0.00,CLR,,0.00,WeatherDisplay:10.37,2015-01-26 16:57:00,
2015-01-26 09:02:00,53.4,43.5,30.01,SSE,164,22.0,22.0,69,0.00,CLR,,0.00,WeatherDisplay:10.37,2015-01-26 17:02:00,
2015-01-26 09:07:00,53.4,43.9,30.00,West,260,20.7,20.7,70,0.00,CLR,,0.00,WeatherDisplay:10.37,2015-01-26 17:07:00,
2015-01-26 09:12:00,53.8,43.9,30.01,SSE,164,20.7,20.7,69,0.00,CLR,,0.00,WeatherDisplay:10.37,2015-01-26 17:12:00,
2015-01-26 09:17:00,54.0,44.1,30.00,South,173,17.3,17.3,69,0.00,CLR,,0.00,WeatherDisplay:10.37,2015-01-26 17:17:00,
2015-01-26 09:22:00,53.7,44.1,30.00,SSW,204,22.0,22.0,70,0.00,CLR,,0.00,WeatherDisplay:10.37,2015-01-26 17:22:00,
2015-01-26 09:27:00,53.7,44.1,30.00,SSW,198,19.6,19.6,70,0.00,CLR,,0.00,WeatherDisplay:10.37,2015-01-26 17:27:00,
2015-01-26 09:32:00,53.4,44.2,30.00,South,188,25.3,25.3,71,0.00,CLR,,0.00,WeatherDisplay:10.37,2015-01-26 17:32:00,
2015-01-26 09:37:00,53.3,44.1,30.00,SSE,168,20.7,20.7,71,0.00,CLR,,0.00,WeatherDisplay:10.37,2015-01-26 17:37:00,
2015-01-26 09:42:00,53.2,44.0,30.00,South,170,28.0,28.0,71,0.00,CLR,,0.00,WeatherDisplay:10.37,2015-01-26 17:42:00,
2015-01-26 09:47:00,53.8,44.6,30.00,SSE,163,21.0,21.0,71,0.00,CLR,,0.00,WeatherDisplay:10.37,2015-01-26 17:47:00,
2015-01-26 09:52:00,54.9,44.9,30.00,SSE,157,23.0,23.0,69,0.00,CLR,,0.00,WeatherDisplay:10.37,2015-01-26 17:52:00,
2015-01-26 09:57:00,56.0,45.2,30.00,SSW,209,19.6,19.6,67,0.00,CLR,,0.00,WeatherDisplay:10.37,2015-01-26 17:57:00,
2015-01-26 10:02:00,56.4,45.2,30.00,SW,229,18.4,18.4,66,0.00,CLR,,0.00,WeatherDisplay:10.37,2015-01-26 18:02:00,